Richlands, VA

7:17 PM EDT on July 21, 2017 (GMT -0400)
Tazewell County

Weather History for KJFZ - February, 2013

Change the Weather History Date:

Saturday, February 9, 2013

  Actual Average (KBLF) Record (KBLF)
Temperature  
Mean Temperature 34 °F -  
Max Temperature 44 °F 37 °F 66 °F (1990)
Min Temperature 23 °F 21 °F 1 °F (1995)
Degree Days  
Heating Degree Days 32    
Moisture  
Dew Point 17 °F    
Average Humidity 57    
Maximum Humidity 93    
Minimum Humidity 23    
Precipitation  
Precipitation 0.00 in - - ()
Sea Level Pressure  
Sea Level Pressure 30.23 in    
Wind  
Wind Speed 6 mph (NW)    
Max Wind Speed 13 mph    
Max Gust Speed -    
Visibility 10 miles    
Events      
Averages and records for this station are not official NWS values.
T = Trace of Precipitation, MM = Missing Value Source: NWS Daily Summary

Daily Weather History Graph

Daily Weather History Graph

Search for Another Location

Airport or City:

Trip Planner

Search our weather history database for the weather conditions in past years. The results will help you decide how hot, cold, wet, or windy it might be!

Date:

Astronomy

Feb. 09, 2013 Rise Set
Actual Time 7:22 AM EST 6:01 PM EST
Civil Twilight 6:55 AM EST 6:28 PM EST
Nautical Twilight 6:24 AM EST 6:58 PM EST
Astronomical Twilight 5:54 AM EST 7:29 PM EST
Moon 6:33 AM EST (2/9) 5:41 PM EST (2/9)
Length of Visible Light 11h 32m
Length of Day
10h 39m
Waning Crescent, 0% of the Moon is Illuminated
Feb 9
Waning Crescent
Feb 10
New
Feb 17
First Quarter
Feb 25
Full
Mar 4
Last Quarter

Hourly Weather History & Observations

Time (EST) Temp. Windchill Dew Point Humidity Pressure Visibility Wind Dir Wind Speed Gust Speed Precip Events Conditions
12:15 AM 28.4 °F 18.5 °F 26.6 °F 93% 30.16 in 10.0 mi WNW 11.5 mph - N/A   Unknown
12:35 AM 28.4 °F 19.1 °F 26.6 °F 93% 30.16 in 10.0 mi WNW 10.4 mph - N/A   Partly Cloudy
12:55 AM 28.4 °F 23.3 °F 26.6 °F 93% 30.15 in 10.0 mi Variable 4.6 mph - N/A   Partly Cloudy
1:15 AM 28.4 °F 19.7 °F 24.8 °F 86% 30.17 in 10.0 mi WNW 9.2 mph - N/A   Partly Cloudy
1:35 AM 28.4 °F 20.4 °F 24.8 °F 86% 30.17 in 10.0 mi NW 8.1 mph - N/A   Partly Cloudy
1:55 AM 28.4 °F 22.2 °F 24.8 °F 86% 30.17 in 10.0 mi Variable 5.8 mph - N/A   Partly Cloudy
2:15 AM 28.4 °F 20.4 °F 24.8 °F 86% 30.17 in 10.0 mi NW 8.1 mph - N/A   Scattered Clouds
2:35 AM 28.4 °F 22.2 °F 24.8 °F 86% 30.17 in 10.0 mi Variable 5.8 mph - N/A   Partly Cloudy
2:55 AM 26.6 °F 19.1 °F 24.8 °F 93% 30.17 in 10.0 mi Variable 6.9 mph - N/A   Scattered Clouds
3:15 AM 26.6 °F 17.5 °F 23.0 °F 86% 30.16 in 10.0 mi NW 9.2 mph - N/A   Mostly Cloudy
3:35 AM 26.6 °F 16.8 °F 23.0 °F 86% 30.18 in 10.0 mi NW 10.4 mph - N/A   Scattered Clouds
3:55 AM 26.6 °F 20.0 °F 23.0 °F 86% 30.18 in 10.0 mi North 5.8 mph - N/A   Mostly Cloudy
4:15 AM 26.6 °F 19.1 °F 23.0 °F 86% 30.18 in 10.0 mi NW 6.9 mph - N/A   Mostly Cloudy
4:35 AM 26.6 °F 20.0 °F 23.0 °F 86% 30.18 in 10.0 mi NW 5.8 mph - N/A   Mostly Cloudy
4:55 AM 26.6 °F 22.6 °F 23.0 °F 86% 30.20 in 10.0 mi Variable 3.5 mph - N/A   Overcast
5:15 AM 26.6 °F 22.6 °F 23.0 °F 86% 30.21 in 10.0 mi NW 3.5 mph - N/A   Overcast
5:35 AM 24.8 °F 13.4 °F 21.2 °F 86% 30.21 in 10.0 mi NW 12.7 mph - N/A   Mostly Cloudy
5:55 AM 24.8 °F 17.9 °F 21.2 °F 86% 30.20 in 10.0 mi Variable 5.8 mph - N/A   Scattered Clouds
6:15 AM 24.8 °F 19.1 °F 21.2 °F 86% 30.22 in 10.0 mi NW 4.6 mph - N/A   Partly Cloudy
6:35 AM 24.8 °F 14.6 °F 21.2 °F 86% 30.23 in 10.0 mi NW 10.4 mph - N/A   Partly Cloudy
6:55 AM 24.8 °F 16.1 °F 21.2 °F 86% 30.22 in 10.0 mi NW 8.1 mph - N/A   Partly Cloudy
7:15 AM 24.8 °F 17.9 °F 21.2 °F 86% 30.23 in 10.0 mi NW 5.8 mph - N/A   Partly Cloudy
7:35 AM 23.0 °F - 21.2 °F 93% 30.25 in 10.0 mi Calm Calm - N/A   Partly Cloudy
7:55 AM 23.0 °F 18.4 °F 21.2 °F 93% 30.25 in 10.0 mi Variable 3.5 mph - N/A   Clear
8:15 AM 23.0 °F 18.4 °F 21.2 °F 93% 30.25 in 10.0 mi NNW 3.5 mph - N/A   Clear
8:35 AM 24.8 °F 20.5 °F 21.2 °F 86% 30.26 in 10.0 mi Variable 3.5 mph - N/A   Clear
8:55 AM 24.8 °F 17.9 °F 21.2 °F 86% 30.26 in 10.0 mi Variable 5.8 mph - N/A   Clear
9:15 AM 26.6 °F 21.2 °F 21.2 °F 80% 30.27 in 10.0 mi Variable 4.6 mph - N/A   Clear
9:35 AM 26.6 °F 20.0 °F 21.2 °F 80% 30.27 in 10.0 mi WNW 5.8 mph - N/A   Clear
9:55 AM 28.4 °F 22.2 °F 21.2 °F 74% 30.27 in 10.0 mi WNW 5.8 mph - N/A   Clear
10:15 AM 28.4 °F 23.3 °F 21.2 °F 74% 30.27 in 10.0 mi WNW 4.6 mph - N/A   Clear
10:35 AM 28.4 °F - 21.2 °F 74% 30.27 in 10.0 mi Calm Calm - N/A   Clear
10:55 AM 30.2 °F 25.4 °F 19.4 °F 64% 30.27 in 10.0 mi WNW 4.6 mph - N/A   Clear
11:15 AM 32.0 °F 27.5 °F 17.6 °F 55% 30.27 in 10.0 mi WNW 4.6 mph - N/A   Clear
11:35 AM 33.8 °F 30.8 °F 17.6 °F 52% 30.27 in 10.0 mi WSW 3.5 mph - N/A   Clear
11:55 AM 35.6 °F 32.8 °F 19.4 °F 52% 30.27 in 10.0 mi Variable 3.5 mph - N/A   Clear
12:15 PM 35.6 °F - 14.0 °F 41% 30.26 in 10.0 mi Calm Calm - N/A   Clear
12:35 PM 37.4 °F 34.9 °F 15.8 °F 41% 30.25 in 10.0 mi Variable 3.5 mph - N/A   Clear
12:55 PM 39.2 °F - 14.0 °F 36% 30.25 in 10.0 mi Calm Calm - N/A   Clear
1:15 PM 39.2 °F - 14.0 °F 36% 30.24 in 10.0 mi Calm Calm - N/A   Clear
1:35 PM 41.0 °F 37.1 °F 12.2 °F 31% 30.24 in 10.0 mi WNW 5.8 mph - N/A   Clear
1:55 PM 42.8 °F 39.3 °F 12.2 °F 29% 30.25 in 10.0 mi Variable 5.8 mph - N/A   Clear
2:15 PM 41.0 °F - 10.4 °F 29% 30.24 in 10.0 mi Calm Calm - N/A   Clear
2:35 PM 42.8 °F - 10.4 °F 27% 30.24 in 10.0 mi Calm Calm - N/A   Clear
2:55 PM 44.6 °F - 12.2 °F 27% 30.24 in 10.0 mi Calm Calm - N/A   Clear
3:15 PM 44.6 °F 43.1 °F 10.4 °F 25% 30.24 in 10.0 mi North 3.5 mph - N/A   Clear
3:35 PM 44.6 °F - 10.4 °F 25% 30.25 in 10.0 mi Calm Calm - N/A   Clear
3:55 PM 44.6 °F - 10.4 °F 25% 30.24 in 10.0 mi Calm Calm - N/A   Clear
4:15 PM 42.8 °F - 10.4 °F 27% 30.24 in 10.0 mi Calm Calm - N/A   Clear
4:35 PM 44.6 °F 43.1 °F 12.2 °F 27% 30.24 in 10.0 mi Variable 3.5 mph - N/A   Clear
4:55 PM 42.8 °F 41.1 °F 10.4 °F 27% 30.24 in 10.0 mi South 3.5 mph - N/A   Clear
5:15 PM 44.6 °F 43.1 °F 10.4 °F 25% 30.24 in 10.0 mi Variable 3.5 mph - N/A   Clear
5:35 PM 44.6 °F - 8.6 °F 23% 30.25 in 10.0 mi Calm Calm - N/A   Clear
5:55 PM 42.8 °F - 8.6 °F 25% 30.25 in 10.0 mi Calm Calm - N/A   Clear
6:15 PM 42.8 °F - 10.4 °F 27% 30.25 in 10.0 mi Calm Calm - N/A   Clear
6:35 PM 39.2 °F - 8.6 °F 28% 30.25 in 10.0 mi Calm Calm - N/A   Clear
6:55 PM 39.2 °F - 8.6 °F 28% 30.26 in 10.0 mi Calm Calm - N/A   Clear
7:15 PM 37.4 °F - 10.4 °F 33% 30.26 in 10.0 mi Calm Calm - N/A   Clear
7:35 PM 37.4 °F - 10.4 °F 33% 30.26 in 10.0 mi Calm Calm - N/A   Clear
7:55 PM 35.6 °F - 10.4 °F 35% 30.26 in 10.0 mi Calm Calm - N/A   Clear
8:15 PM 35.6 °F - 8.6 °F 33% 30.25 in 10.0 mi Calm Calm - N/A   Clear
8:35 PM 35.6 °F - 8.6 °F 33% 30.25 in 10.0 mi Calm Calm - N/A   Clear
8:55 PM 35.6 °F - 8.6 °F 33% 30.25 in 10.0 mi Calm Calm - N/A   Clear
9:15 PM 33.8 °F - 8.6 °F 35% 30.25 in 10.0 mi Calm Calm - N/A   Clear
9:35 PM 33.8 °F 29.6 °F 10.4 °F 38% 30.24 in 10.0 mi ENE 4.6 mph - N/A   Clear
9:55 PM 35.6 °F - 10.4 °F 35% 30.24 in 10.0 mi Calm Calm - N/A   Clear
10:15 PM 35.6 °F 32.8 °F 10.4 °F 35% 30.23 in 10.0 mi ENE 3.5 mph - N/A   Clear
10:35 PM 37.4 °F - 10.4 °F 33% 30.23 in 10.0 mi Calm Calm - N/A   Clear
10:55 PM 35.6 °F - 10.4 °F 35% 30.23 in 10.0 mi Calm Calm - N/A   Clear
11:55 PM 37.4 °F 34.9 °F 6.8 °F 28% 30.22 in 10.0 mi ESE 3.5 mph - N/A   Clear